#timestamp,LO_Frequency,Hit,StdDev 
1636470015.4,286046998.2,N
1636470035.2,286047000.7,N
1636470055.0,286047000.5,N
1636470055.9,286047000.5,N
1636470075.8,286047000.9,N
1636470095.6,286047000.9,N
1636470115.4,286047001.1,N
1636470135.3,286047000.6,N
1636470155.1,286047001.2,N
1636470175.9,286047001.2,N
1636470195.7,286047000.3,N
1636470215.5,286047000.4,N
1636470235.4,286046999.7,N
1636470255.2,286047002.5,N
1636470275.0,286047002.7,N
1636470276.0,286047002.7,N
1636470295.8,286046999.9,N
1636470315.6,286047001.0,N
1636470335.5,286047001.1,N
1636470355.3,286047001.0,N
1636470375.1,286047000.8,N
1636470395.9,286047002.2,N
1636470415.7,286046999.9,N
1636470435.6,286047002.5,N
1636470455.4,286047000.1,N
1636470475.2,286047002.6,N
1636470495.1,286047002.3,N
1636470496.0,286047002.3,N
1636470515.8,286047002.3,N
1636470535.7,286047002.8,N
1636470555.5,286046999.8,N
1636470575.3,286047002.5,N
1636470595.2,286047001.5,N
1636470615.9,286047001.3,N
1636470635.7,286047002.8,N
1636470655.6,286047002.1,N
1636470675.4,286047001.8,N
1636470695.3,286047004.0,Y
1636470715.1,286047002.3,P
1636470716.0,286047002.3,P
1636470735.8,286047002.3,P
1636470755.7,286047002.2,Y
1636470775.5,286047000.0,P
1636470795.4,286047002.8,N
1636470815.2,286047000.1,N
1636470835.0,286046999.9,N
1636470835.9,286046999.9,N
1636470855.8,286047000.3,N
1636470875.6,286047000.2,N
1636470895.4,286047000.6,N
1636470915.3,286046999.8,N
1636470935.1,286047002.5,N
1636470955.9,286046999.9,N
1636470975.7,286047000.3,N
1636470995.5,286047000.1,N
1636471015.4,286046998.1,N
1636471035.2,286047000.0,N
1636471055.0,286047000.0,N
1636471055.9,286047000.0,N
1636471075.8,286046999.7,N
1636471095.6,286047002.2,N
1636471115.5,286047001.6,N
1636471135.3,286047002.3,N
1636471155.1,286047002.3,N
1636471175.9,286047001.6,N
1636471195.7,286047001.4,N
1636471215.5,286047001.9,N
1636471235.4,286047003.8,Y
1636471255.2,286047002.6,P
1636471275.1,286047002.1,N
1636471276.0,286047002.1,N
1636471295.8,286047001.9,N
1636471315.6,286047002.7,Y
1636471335.5,286047001.2,P
1636471355.3,286046996.8,P
1636471375.2,286046996.6,N
1636471395.9,286046997.1,N
1636471415.7,286046999.1,N
1636471435.6,286046999.1,N
1636471455.4,286046998.8,N
1636471475.2,286046998.6,N
1636471495.1,286046998.6,N
1636471496.0,286046998.6,N
1636471515.8,286046998.4,N
1636471535.7,286046999.4,N
1636471555.5,286046997.0,N
1636471575.3,286046996.5,N
1636471595.2,286046999.5,N
1636471615.0,286046998.7,N
1636471615.9,286046998.7,N
1636471635.8,286046998.7,N
1636471655.6,286047000.8,N
1636471675.4,286046998.4,N
1636471695.3,286046999.0,N
1636471715.1,286046998.3,N
1636471735.8,286046996.9,N
1636471755.7,286047001.2,N
1636471775.5,286047001.0,N
1636471795.4,286046998.5,N
1636471815.2,286046998.7,N
1636471835.0,286046997.2,N
1636471835.9,286046997.2,N
1636471855.8,286046996.7,N
1636471875.6,286046999.4,N
1636471895.4,286047000.5,N
1636471915.3,286047001.2,N
1636471935.1,286047001.0,N
1636471955.9,286047001.2,N
1636471975.7,286047000.4,N
1636471995.5,286047001.2,N
1636472015.4,286046998.1,N
1636472035.2,286046998.4,N
1636472055.0,286046999.0,N
1636472055.9,286046999.0,N
1636472075.8,286046996.8,N
1636472095.6,286046997.0,N
1636472115.5,286046999.1,N
1636472135.3,286046998.2,N
1636472155.1,286047000.6,N
1636472175.9,286047000.8,N
1636472195.7,286047002.8,N
1636472215.6,286047002.7,N
1636472235.4,286047000.3,N
1636472255.2,286046998.1,N
1636472275.1,286046998.5,N
1636472276.0,286046998.5,N
1636472295.8,286047000.9,N
1636472315.7,286047001.0,N
1636472335.5,286046998.1,N
1636472355.3,286047000.7,N
1636472375.2,286047000.9,N
1636472395.9,286047000.9,N
1636472415.7,286047000.0,N
1636472435.6,286047000.7,N
1636472455.4,286046998.5,N
1636472475.2,286046999.4,N
1636472495.1,286046996.7,N
1636472496.0,286046996.7,N
1636472515.8,286046996.8,N
1636472535.7,286046996.7,N
1636472555.5,286046997.7,N
1636472575.3,286046997.4,N
1636472595.2,286046995.3,N
1636472615.0,286046997.5,N
1636472615.9,286046997.5,N
1636472635.8,286046997.4,N
1636472655.6,286046998.0,N
1636472675.4,286046998.0,N
1636472695.3,286046997.9,N
1636472715.1,286046997.0,N
1636472735.8,286046997.9,N
1636472755.7,286046997.3,N
1636472775.5,286046997.1,N
1636472795.4,286046996.8,N
1636472815.2,286046997.2,N
1636472835.0,286046997.4,N
1636472835.9,286046997.4,N
1636472855.8,286046997.6,N
1636472875.6,286046997.9,N
1636472895.4,286046997.2,N
1636472915.3,286046996.8,N
1636472935.1,286046996.9,N
1636472955.9,286046998.4,N
1636472975.7,286046999.2,N
1636472995.5,286046996.9,Y
1636473015.4,286047000.4,P
1636473035.2,286047000.7,N
1636473055.1,286047001.1,N
1636473056.0,286047001.1,N
1636473075.8,286047001.0,N
1636473095.6,286046998.5,N
1636473115.5,286046998.9,N
1636473135.3,286046998.2,N
1636473155.1,286046998.4,N
1636473175.9,286046998.3,N
1636473195.7,286046999.0,N
1636473215.6,286046998.4,N
1636473235.4,286046998.3,N
1636473255.2,286047001.2,N
1636473275.1,286047000.4,N
1636473276.0,286047000.4,N
1636473295.8,286047000.3,N
1636473315.6,286047000.1,N
1636473335.5,286047000.5,N
1636473355.3,286047000.2,N
1636473375.2,286047002.4,N
1636473395.9,286047000.0,N
1636473415.7,286046999.7,N
1636473435.6,286046999.8,N
1636473455.4,286047002.5,N
1636473475.2,286047002.2,N
1636473495.1,286047001.4,N
1636473496.0,286047001.4,N
1636473515.8,286047002.0,N
1636473535.7,286047002.6,N
1636473555.5,286047002.0,N
1636473575.3,286047002.0,N
1636473595.2,286047000.5,N
